| time (UTC) | temp F | wind direction | speed knots | gust knots | rain 1hr in | rain 24hr in | rain mn in | humidity % | barometer mb |
| 20260905203510 | 81 | 329 | 1.7 | 7.8 | 0.00 | 0.01 | 0.01 | 55 | 1010.7 |
| 20260905203009 | 81 | 24 | 1.7 | 4.3 | 0.00 | 0.01 | 0.01 | 58 | 1010.6 |
| 20260905202508 | 80 | 347 | 0.0 | 1.7 | 0.00 | 0.01 | 0.01 | 61 | 1010.7 |
| 20260905202007 | 79 | 271 | 0.0 | 3.5 | 0.00 | 0.01 | 0.01 | 62 | 1010.7 |
| 20260905201505 | 79 | 347 | 1.7 | 3.5 | 0.00 | 0.01 | 0.01 | 61 | 1010.8 |
| 20260905201005 | 80 | 345 | 0.9 | 3.5 | 0.00 | 0.01 | 0.01 | 62 | 1010.7 |
| 20260905200508 | 79 | 2 | 0.0 | 5.2 | 0.00 | 0.01 | 0.01 | 63 | 1010.7 |
| 20260905200008 | 79 | 345 | 0.9 | 5.2 | 0.00 | 0.01 | 0.01 | 61 | 1010.7 |
| 20260905195505 | 79 | 359 | 0.9 | 2.6 | 0.00 | 0.01 | 0.01 | 61 | 1010.6 |
| 20260905195004 | 78 | 182 | 0.0 | 2.6 | 0.00 | 0.01 | 0.01 | 63 | 1010.6 |
| 20260905194504 | 78 | 76 | 0.0 | 1.7 | 0.00 | 0.01 | 0.01 | 63 | 1010.7 |
| 20260905194003 | 77 | 210 | 0.0 | 1.7 | 0.00 | 0.01 | 0.01 | 64 | 1010.5 |
| 20260905193502 | 76 | 207 | 0.0 | 1.7 | 0.00 | 0.01 | 0.01 | 66 | 1010.4 |
| 20260905193002 | 75 | 340 | 0.0 | 1.7 | 0.00 | 0.01 | 0.01 | 66 | 1010.5 |
| 20260905192503 | 75 | 86 | 0.0 | 1.7 | 0.00 | 0.01 | 0.01 | 67 | 1010.4 |
| 20260905192100 | 74 | 18 | 0.0 | 3.5 | 0.00 | 0.01 | 0.01 | 69 | 1010.4 |
| 20260905192000 | 74 | 319 | 0.0 | 3.5 | 0.00 | 0.01 | 0.01 | 70 | 1010.4 |
| 20260905191501 | 74 | 346 | 0.9 | 5.2 | 0.00 | 0.01 | 0.01 | 71 | 1010.4 |
| 20260905191003 | 73 | 84 | 0.9 | 5.2 | 0.00 | 0.01 | 0.01 | 72 | 1010.3 |
| 20260905190501 | 73 | 152 | 0.0 | 1.7 | 0.00 | 0.01 | 0.01 | 76 | 1010.3 |
| 20260905190100 | 73 | 25 | 0.0 | 2.6 | 0.00 | 0.01 | 0.01 | 77 | 1010.2 |
| 20260905185601 | 72 | 12 | 0.0 | 2.6 | 0.00 | 0.01 | 0.01 | 79 | 1010.3 |
| 20260905185059 | 72 | 347 | 1.7 | 2.6 | 0.00 | 0.01 | 0.01 | 77 | 1010.3 |
| 20260905184559 | 72 | 351 | 0.0 | 1.7 | 0.01 | 0.01 | 0.01 | 78 | 1010.4 |
| 20260905184058 | 72 | 358 | 0.0 | 1.7 | 0.01 | 0.01 | 0.01 | 77 | 1010.4 |
| 20260905183558 | 72 | 358 | 0.0 | 1.7 | 0.01 | 0.01 | 0.01 | 78 | 1010.5 |
| 20260905183058 | 71 | 3 | 0.0 | 1.7 | 0.01 | 0.01 | 0.01 | 79 | 1010.6 |
| 20260905182556 | 71 | 134 | 0.0 | 0.9 | 0.01 | 0.01 | 0.01 | 82 | 1010.9 |
| 20260905182055 | 70 | 212 | 0.0 | 0.9 | 0.01 | 0.01 | 0.01 | 83 | 1011.1 |
| 20260905181555 | 69 | 195 | 0.0 | 4.3 | 0.01 | 0.01 | 0.01 | 84 | 1011.2 |
| 20260905181052 | 68 | 179 | 0.9 | 4.3 | 0.01 | 0.01 | 0.01 | 84 | 1011.5 |
| 20260905180553 | 69 | 212 | 0.9 | 3.5 | 0.01 | 0.01 | 0.01 | 84 | 1011.9 |
| 20260905180101 | 69 | 357 | 0.0 | 2.6 | 0.01 | 0.01 | 0.01 | 82 | 1011.7 |
| 20260905175553 | 69 | 357 | 0.0 | 2.6 | 0.01 | 0.01 | 0.01 | 79 | 1011.7 |
| 20260905175052 | 69 | 355 | 0.0 | 1.7 | 0.01 | 0.01 | 0.01 | 79 | 1011.5 |
| 20260905174555 | 70 | 7 | 0.0 | 4.3 | 0.00 | 0.00 | 0.00 | 77 | 1011.6 |
| 20260905174054 | 71 | 333 | 0.0 | 5.2 | 0.00 | 0.00 | 0.00 | 75 | 1012.3 |
| 20260905173551 | 71 | 356 | 0.9 | 6.1 | 0.00 | 0.00 | 0.00 | 72 | 1012.7 |
| 20260905173100 | 72 | 360 | 1.7 | 6.1 | 0.00 | 0.00 | 0.00 | 70 | 1013.0 |
| 20260905172550 | 73 | 350 | 0.9 | 8.7 | 0.00 | 0.00 | 0.00 | 69 | 1012.9 |
| 20260905172050 | 73 | 345 | 2.6 | 8.7 | 0.00 | 0.00 | 0.00 | 68 | 1013.2 |
| 20260905171549 | 74 | 349 | 0.9 | 5.2 | 0.00 | 0.00 | 0.00 | 67 | 1013.3 |
| 20260905171048 | 74 | 7 | 0.0 | 6.1 | 0.00 | 0.00 | 0.00 | 66 | 1013.4 |
| 20260905170549 | 74 | 357 | 0.0 | 13.9 | 0.00 | 0.00 | 0.00 | 67 | 1013.6 |
| 20260905170049 | 75 | 327 | 5.2 | 13.9 | 0.00 | 0.00 | 0.00 | 65 | 1013.6 |
| 20260905165548 | 76 | 337 | 4.3 | 14.8 | 0.00 | 0.00 | 0.00 | 65 | 1013.6 |
| 20260905165052 | 77 | 339 | 7.0 | 21.7 | 0.00 | 0.00 | 0.00 | 66 | 1013.4 |
| 20260905164548 | 78 | 26 | 6.1 | 21.7 | 0.00 | 0.00 | 0.00 | 68 | 1013.3 |
| 20260905164047 | 79 | 315 | 2.6 | 11.3 | 0.00 | 0.00 | 0.00 | 71 | 1013.2 |
| 20260905163550 | 79 | 30 | 5.2 | 11.3 | 0.00 | 0.00 | 0.00 | 69 | 1013.2 |
| 20260905163049 | 79 | 328 | 1.7 | 14.8 | 0.00 | 0.00 | 0.00 | 69 | 1013.3 |
| 20260905162548 | 80 | 317 | 4.3 | 14.8 | 0.00 | 0.00 | 0.00 | 67 | 1013.2 |
| 20260905162046 | 80 | 353 | 4.3 | 13.0 | 0.00 | 0.00 | 0.00 | 66 | 1013.1 |
| 20260905161546 | 81 | 142 | 2.6 | 13.9 | 0.00 | 0.00 | 0.00 | 65 | 1012.9 |
| 20260905161047 | 81 | 356 | 2.6 | 12.2 | 0.00 | 0.00 | 0.00 | 65 | 1012.8 |
| 20260905160546 | 81 | 306 | 2.6 | 12.2 | 0.00 | 0.00 | 0.00 | 64 | 1012.8 |
| 20260905160046 | 81 | 291 | 2.6 | 11.3 | 0.00 | 0.00 | 0.00 | 64 | 1012.7 |
| 20260905155549 | 81 | 338 | 1.7 | 7.8 | 0.00 | 0.00 | 0.00 | 68 | 1012.9 |
| 20260905155046 | 81 | 324 | 2.6 | 7.8 | 0.00 | 0.00 | 0.00 | 68 | 1013.0 |
| 20260905154546 | 80 | 245 | 1.7 | 12.2 | 0.00 | 0.00 | 0.00 | 70 | 1013.1 |
| 20260905154048 | 80 | 339 | 2.6 | 12.2 | 0.00 | 0.00 | 0.00 | 70 | 1013.0 |
| 20260905153545 | 80 | 330 | 4.3 | 11.3 | 0.00 | 0.00 | 0.00 | 68 | 1013.1 |
| 20260905153045 | 80 | 257 | 5.2 | 11.3 | 0.00 | 0.00 | 0.00 | 67 | 1012.9 |
| 20260905152545 | 80 | 331 | 2.6 | 10.4 | 0.00 | 0.00 | 0.00 | 67 | 1013.0 |
| 20260905152044 | 81 | 360 | 2.6 | 12.2 | 0.00 | 0.00 | 0.00 | 67 | 1012.9 |
| 20260905151548 | 80 | 51 | 4.3 | 12.2 | 0.00 | 0.00 | 0.00 | 68 | 1012.9 |
| 20260905151044 | 81 | 336 | 3.5 | 9.6 | 0.00 | 0.00 | 0.00 | 68 | 1012.7 |
| 20260905150544 | 81 | 314 | 2.6 | 9.6 | 0.00 | 0.00 | 0.00 | 69 | 1012.6 |
| 20260905150044 | 80 | 349 | 4.3 | 9.6 | 0.00 | 0.00 | 0.00 | 69 | 1012.6 |
| 20260905145543 | 81 | 12 | 5.2 | 9.6 | 0.00 | 0.00 | 0.00 | 68 | 1012.6 |
| 20260905145042 | 81 | 327 | 3.5 | 7.0 | 0.00 | 0.00 | 0.00 | 68 | 1012.6 |
| 20260905144541 | 81 | 4 | 2.6 | 10.4 | 0.00 | 0.00 | 0.00 | 68 | 1012.6 |
| 20260905144044 | 82 | 333 | 3.5 | 10.4 | 0.00 | 0.00 | 0.00 | 66 | 1012.7 |
| 20260905143544 | 82 | 340 | 0.0 | 4.3 | 0.00 | 0.00 | 0.00 | 69 | 1012.8 |
| 20260905143047 | 82 | 37 | 0.9 | 4.3 | 0.00 | 0.00 | 0.00 | 69 | 1012.7 |
| 20260905142541 | 82 | 300 | 0.0 | 1.7 | 0.00 | 0.00 | 0.00 | 70 | 1012.8 |
| 20260905142038 | 81 | 15 | 0.0 | 2.6 | 0.00 | 0.00 | 0.00 | 72 | 1012.8 |
| 20260905141535 | 81 | 20 | 0.0 | 2.6 | 0.00 | 0.00 | 0.00 | 72 | 1012.9 |
| 20260905141034 | 81 | 350 | 0.9 | 2.6 | 0.00 | 0.00 | 0.00 | 71 | 1012.9 |
| 20260905140534 | 81 | 255 | 0.0 | 0.9 | 0.00 | 0.00 | 0.00 | 74 | 1012.9 |
| 20260905140032 | 79 | 251 | 0.0 | 1.7 | 0.00 | 0.00 | 0.00 | 78 | 1012.8 |
| 20260905135529 | 78 | 335 | 0.0 | 2.6 | 0.00 | 0.00 | 0.00 | 79 | 1012.8 |
| 20260905135033 | 78 | 330 | 0.9 | 2.6 | 0.00 | 0.00 | 0.00 | 80 | 1012.8 |
| 20260905134533 | 77 | 331 | 0.9 | 1.7 | 0.00 | 0.00 | 0.00 | 80 | 1012.8 |
| 20260905134028 | 77 | 341 | 0.0 | 2.6 | 0.00 | 0.00 | 0.00 | 82 | 1012.7 |
| 20260905133523 | 76 | 341 | 0.9 | 2.6 | 0.00 | 0.00 | 0.00 | 83 | 1012.8 |
| 20260905133023 | 75 | 354 | 0.9 | 2.6 | 0.00 | 0.00 | 0.00 | 83 | 1013.0 |
| 20260905132521 | 75 | 354 | 0.0 | 1.7 | 0.00 | 0.00 | 0.00 | 85 | 1013.0 |
| 20260905132022 | 74 | 354 | 0.9 | 1.7 | 0.00 | 0.00 | 0.00 | 87 | 1013.2 |
| 20260905131521 | 73 | 350 | 0.0 | 1.7 | 0.00 | 0.00 | 0.00 | 89 | 1013.3 |
| 20260905131016 | 72 | 349 | 0.0 | 0.9 | 0.00 | 0.00 | 0.00 | 91 | 1013.3 |
| 20260905130515 | 72 | 37 | 0.0 | 0.0 | 0.00 | 0.00 | 0.00 | 94 | 1013.4 |
| 20260905130013 | 71 | 42 | 0.0 | 0.0 | 0.00 | 0.00 | 0.00 | 96 | 1013.6 |
| 20260905125511 | 70 | 42 | 0.0 | 0.0 | 0.00 | 0.00 | 0.00 | 96 | 1013.6 |
| 20260905125011 | 69 | 113 | 0.0 | 0.0 | 0.00 | 0.00 | 0.00 | 96 | 1013.7 |
| 20260905124511 | 69 | 113 | 0.0 | 0.9 | 0.00 | 0.00 | 0.00 | 95 | 1013.6 |
| 20260905124011 | 68 | 113 | 0.0 | 0.9 | 0.00 | 0.00 | 0.00 | 96 | 1013.6 |
| 20260905123507 | 67 | 113 | 0.0 | 0.0 | 0.00 | 0.00 | 0.00 | 95 | 1013.5 |
| 20260905123007 | 67 | 113 | 0.0 | 0.0 | 0.00 | 0.00 | 0.00 | 96 | 1013.6 |
| 20260905122505 | 66 | 113 | 0.0 | 0.0 | 0.00 | 0.00 | 0.00 | 96 | 1013.5 |
| 20260905122003 | 66 | 113 | 0.0 | 0.0 | 0.00 | 0.00 | 0.00 | 96 | 1013.4 |
| 20260905121505 | 65 | 113 | 0.0 | 0.0 | 0.00 | 0.00 | 0.00 | 96 | 1013.5 |
| 20260905121003 | 65 | 113 | 0.0 | 0.0 | 0.00 | 0.00 | 0.00 | 96 | 1013.5 |
| 20260905120502 | 65 | 113 | 0.0 | 0.0 | 0.00 | 0.00 | 0.00 | 96 | 1013.4 |
| 20260905120003 | 64 | 113 | 0.0 | 0.0 | 0.00 | 0.00 | 0.00 | 95 | 1013.5 |
| 20260905115502 | 64 | 113 | 0.0 | 0.0 | 0.00 | 0.00 | 0.00 | 96 | 1013.4 |
| 20260905115005 | 63 | 113 | 0.0 | 0.0 | 0.00 | 0.00 | 0.00 | 96 | 1013.4 |
| 20260905114502 | 63 | 113 | 0.0 | 0.0 | 0.00 | 0.00 | 0.00 | 96 | 1013.4 |
| 20260905114101 | 63 | 113 | 0.0 | 0.0 | 0.00 | 0.00 | 0.00 | 96 | 1013.2 |
| 20260905113600 | 63 | 113 | 0.0 | 0.0 | 0.00 | 0.00 | 0.00 | 96 | 1013.1 |
| 20260905113100 | 63 | 113 | 0.0 | 0.0 | 0.00 | 0.00 | 0.00 | 96 | 1013.1 |
| 20260905112600 | 62 | 113 | 0.0 | 0.0 | 0.00 | 0.00 | 0.00 | 96 | 1013.0 |
| 20260905112100 | 62 | 113 | 0.0 | 0.0 | 0.00 | 0.00 | 0.00 | 96 | 1012.9 |
| 20260905111559 | 62 | 113 | 0.0 | 0.0 | 0.00 | 0.00 | 0.00 | 96 | 1013.0 |
| 20260905111100 | 62 | 113 | 0.0 | 0.0 | 0.00 | 0.00 | 0.00 | 96 | 1013.0 |
| 20260905110558 | 62 | 113 | 0.0 | 0.0 | 0.00 | 0.00 | 0.00 | 96 | 1012.9 |
| 20260905110110 | 62 | 113 | 0.0 | 0.0 | 0.00 | 0.00 | 0.00 | 96 | 1012.9 |
| 20260905105558 | 62 | 113 | 0.0 | 0.0 | 0.00 | 0.00 | 0.00 | 96 | 1012.8 |
| 20260905105058 | 62 | 113 | 0.0 | 0.0 | 0.00 | 0.00 | 0.00 | 96 | 1012.7 |
| 20260905104558 | 62 | 113 | 0.0 | 0.0 | 0.00 | 0.00 | 0.00 | 96 | 1012.7 |
| 20260905104056 | 62 | 113 | 0.0 | 0.0 | 0.00 | 0.00 | 0.00 | 96 | 1012.7 |
| 20260905103559 | 63 | 113 | 0.0 | 0.0 | 0.00 | 0.00 | 0.00 | 96 | 1012.7 |
| 20260905103056 | 63 | 113 | 0.0 | 0.0 | 0.00 | 0.00 | 0.00 | 96 | 1012.8 |
| 20260905102655 | 63 | 113 | 0.0 | 0.0 | 0.00 | 0.00 | 0.00 | 96 | 1012.8 |
| 20260905102056 | 63 | 113 | 0.0 | 0.0 | 0.00 | 0.00 | 0.00 | 96 | 1012.7 |
| 20260905101605 | 63 | 113 | 0.0 | 0.0 | 0.00 | 0.00 | 0.00 | 96 | 1012.6 |
| 20260905101054 | 63 | 113 | 0.0 | 0.0 | 0.00 | 0.00 | 0.00 | 96 | 1012.7 |
| 20260905100554 | 63 | 113 | 0.0 | 0.0 | 0.00 | 0.00 | 0.00 | 96 | 1012.7 |
| 20260905100054 | 63 | 113 | 0.0 | 0.0 | 0.00 | 0.00 | 0.00 | 96 | 1012.6 |
| 20260905095555 | 63 | 113 | 0.0 | 0.0 | 0.00 | 0.00 | 0.00 | 96 | 1012.6 |
| 20260905095054 | 63 | 113 | 0.0 | 0.0 | 0.00 | 0.00 | 0.00 | 96 | 1012.6 |
| 20260905094554 | 63 | 113 | 0.0 | 0.0 | 0.00 | 0.00 | 0.00 | 96 | 1012.5 |
| 20260905094054 | 62 | 113 | 0.0 | 0.0 | 0.00 | 0.00 | 0.00 | 96 | 1012.5 |
| 20260905093553 | 63 | 113 | 0.0 | 0.0 | 0.00 | 0.00 | 0.00 | 96 | 1012.3 |
| 20260905093053 | 63 | 113 | 0.0 | 0.0 | 0.00 | 0.00 | 0.00 | 96 | 1012.3 |
| 20260905092552 | 63 | 113 | 0.0 | 0.0 | 0.00 | 0.00 | 0.00 | 96 | 1012.3 |
| 20260905092052 | 63 | 113 | 0.0 | 0.0 | 0.00 | 0.00 | 0.00 | 96 | 1012.4 |
| 20260905091602 | 63 | 113 | 0.0 | 0.0 | 0.00 | 0.00 | 0.00 | 96 | 1012.4 |
| 20260905091050 | 63 | 113 | 0.0 | 0.0 | 0.00 | 0.00 | 0.00 | 96 | 1012.3 |
| 20260905090550 | 63 | 113 | 0.0 | 0.0 | 0.00 | 0.00 | 0.00 | 96 | 1012.4 |
| 20260905090049 | 63 | 113 | 0.0 | 0.0 | 0.00 | 0.00 | 0.00 | 96 | 1012.5 |
| 20260905085553 | 64 | 113 | 0.0 | 0.0 | 0.00 | 0.00 | 0.00 | 96 | 1012.6 |
| 20260905085050 | 64 | 113 | 0.0 | 0.0 | 0.00 | 0.00 | 0.00 | 96 | 1012.6 |
| 20260905084548 | 64 | 113 | 0.0 | 0.0 | 0.00 | 0.00 | 0.00 | 96 | 1012.6 |
| 20260905084047 | 64 | 113 | 0.0 | 0.0 | 0.00 | 0.00 | 0.00 | 96 | 1012.7 |
| 20260905083547 | 63 | 113 | 0.0 | 0.0 | 0.00 | 0.00 | 0.00 | 96 | 1012.8 |
| 20260905083046 | 63 | 113 | 0.0 | 0.0 | 0.00 | 0.00 | 0.00 | 96 | 1012.7 |
| 20260905082546 | 63 | 113 | 0.0 | 0.0 | 0.00 | 0.00 | 0.00 | 96 | 1012.8 |
| 20260905082045 | 63 | 113 | 0.0 | 0.0 | 0.00 | 0.00 | 0.00 | 96 | 1012.8 |
| 20260905081544 | 64 | 113 | 0.0 | 0.0 | 0.00 | 0.00 | 0.00 | 96 | 1012.8 |
| 20260905081047 | 64 | 113 | 0.0 | 0.0 | 0.00 | 0.00 | 0.00 | 96 | 1013.0 |
| 20260905080542 | 64 | 113 | 0.0 | 0.0 | 0.00 | 0.00 | 0.00 | 96 | 1013.0 |
| 20260905080042 | 64 | 113 | 0.0 | 0.0 | 0.00 | 0.00 | 0.00 | 96 | 1013.0 |
| 20260905075542 | 64 | 113 | 0.0 | 0.0 | 0.00 | 0.00 | 0.00 | 96 | 1013.1 |
| 20260905075042 | 64 | 113 | 0.0 | 0.0 | 0.00 | 0.00 | 0.00 | 96 | 1013.1 |
| 20260905074541 | 64 | 113 | 0.0 | 0.0 | 0.00 | 0.00 | 0.00 | 96 | 1013.2 |
| 20260905074041 | 64 | 113 | 0.0 | 0.0 | 0.00 | 0.00 | 0.00 | 96 | 1013.3 |
| 20260905073543 | 64 | 113 | 0.0 | 0.0 | 0.00 | 0.00 | 0.00 | 96 | 1013.3 |
| 20260905073040 | 64 | 113 | 0.0 | 0.0 | 0.00 | 0.00 | 0.00 | 96 | 1013.4 |
| 20260905072540 | 64 | 113 | 0.0 | 0.0 | 0.00 | 0.00 | 0.00 | 96 | 1013.3 |
| 20260905072039 | 64 | 113 | 0.0 | 0.0 | 0.00 | 0.00 | 0.00 | 96 | 1013.4 |
| 20260905071541 | 64 | 113 | 0.0 | 0.0 | 0.00 | 0.00 | 0.00 | 96 | 1013.4 |
| 20260905071039 | 64 | 113 | 0.0 | 0.0 | 0.00 | 0.00 | 0.00 | 96 | 1013.4 |
| 20260905070538 | 64 | 113 | 0.0 | 0.0 | 0.00 | 0.00 | 0.00 | 96 | 1013.4 |
| 20260905070042 | 64 | 113 | 0.0 | 0.0 | 0.00 | 0.00 | 0.00 | 96 | 1013.5 |
| 20260905065536 | 64 | 113 | 0.0 | 0.0 | 0.00 | 0.00 | 0.00 | 96 | 1013.5 |
| 20260905065038 | 64 | 113 | 0.0 | 0.0 | 0.00 | 0.00 | 0.00 | 96 | 1013.7 |
| 20260905064535 | 64 | 113 | 0.0 | 0.0 | 0.00 | 0.00 | 0.00 | 96 | 1013.7 |
| 20260905064036 | 65 | 113 | 0.0 | 0.0 | 0.00 | 0.00 | 0.00 | 96 | 1013.8 |
| 20260905063535 | 65 | 113 | 0.0 | 0.0 | 0.00 | 0.00 | 0.00 | 96 | 1013.8 |
| 20260905063033 | 65 | 113 | 0.0 | 0.0 | 0.00 | 0.00 | 0.00 | 96 | 1013.9 |
| 20260905062532 | 65 | 113 | 0.0 | 0.9 | 0.00 | 0.00 | 0.00 | 96 | 1014.0 |
| 20260905062031 | 65 | 113 | 0.0 | 0.9 | 0.00 | 0.00 | 0.00 | 96 | 1014.1 |
| 20260905061530 | 65 | 113 | 0.0 | 0.0 | 0.00 | 0.00 | 0.00 | 96 | 1014.3 |
| 20260905061029 | 65 | 113 | 0.0 | 0.9 | 0.00 | 0.00 | 0.00 | 96 | 1014.3 |
| 20260905060528 | 65 | 113 | 0.0 | 0.9 | 0.00 | 0.00 | 0.00 | 96 | 1014.4 |
| 20260905060029 | 65 | 113 | 0.0 | 0.9 | 0.00 | 0.00 | 0.00 | 95 | 1014.4 |
| 20260905055530 | 65 | 121 | 0.0 | 0.9 | 0.00 | 0.00 | 0.00 | 95 | 1014.5 |
| 20260905055028 | 65 | 121 | 0.0 | 0.0 | 0.00 | 0.00 | 0.00 | 95 | 1014.7 |
| 20260905054532 | 65 | 121 | 0.0 | 0.0 | 0.00 | 0.00 | 0.00 | 95 | 1014.8 |
| 20260905054026 | 65 | 121 | 0.0 | 0.0 | 0.00 | 0.00 | 0.00 | 95 | 1014.8 |
| 20260905053526 | 65 | 121 | 0.0 | 0.0 | 0.00 | 0.00 | 0.00 | 95 | 1014.8 |
| 20260905053025 | 65 | 121 | 0.0 | 0.0 | 0.00 | 0.00 | 0.00 | 95 | 1014.9 |
| 20260905052524 | 65 | 121 | 0.0 | 0.0 | 0.00 | 0.00 | 0.00 | 95 | 1015.0 |
| 20260905052024 | 65 | 121 | 0.0 | 0.0 | 0.00 | 0.00 | 0.00 | 95 | 1015.0 |
| 20260905051526 | 65 | 121 | 0.0 | 0.0 | 0.00 | 0.00 | 0.00 | 95 | 1015.0 |
| 20260905051023 | 65 | 121 | 0.0 | 0.0 | 0.00 | 0.00 | 0.00 | 95 | 1015.0 |
| 20260905050524 | 65 | 121 | 0.0 | 0.0 | 0.00 | 0.00 | 0.00 | 95 | 1015.1 |
| 20260905050025 | 65 | 121 | 0.0 | 0.0 | 0.00 | 0.00 | 0.00 | 95 | 1015.1 |
| 20260905045521 | 65 | 121 | 0.0 | 0.0 | 0.00 | 0.00 | 0.00 | 95 | 1015.2 |
| 20260905045025 | 65 | 121 | 0.0 | 0.0 | 0.00 | 0.00 | 0.00 | 95 | 1015.1 |
| 20260905044522 | 65 | 121 | 0.0 | 0.0 | 0.00 | 0.00 | 0.00 | 95 | 1015.0 |
| 20260905044020 | 65 | 121 | 0.0 | 0.0 | 0.00 | 0.00 | 0.00 | 94 | 1015.0 |
| 20260905043520 | 65 | 121 | 0.0 | 0.0 | 0.00 | 0.00 | 0.00 | 94 | 1015.2 |
| 20260905043021 | 65 | 121 | 0.0 | 0.0 | 0.00 | 0.00 | 0.00 | 94 | 1015.2 |
| 20260905042519 | 65 | 121 | 0.0 | 0.0 | 0.00 | 0.00 | 0.00 | 94 | 1015.0 |
| 20260905042019 | 65 | 121 | 0.0 | 0.0 | 0.00 | 0.00 | 0.00 | 94 | 1014.9 |
| 20260905041519 | 66 | 121 | 0.0 | 0.0 | 0.00 | 0.00 | 0.00 | 94 | 1014.9 |
| 20260905041019 | 66 | 121 | 0.0 | 0.0 | 0.00 | 0.00 | 0.00 | 94 | 1015.0 |
| 20260905040519 | 66 | 121 | 0.0 | 0.0 | 0.00 | 0.00 | 0.00 | 93 | 1014.9 |
| 20260905040020 | 66 | 121 | 0.0 | 0.0 | 0.00 | 0.00 | 0.00 | 94 | 1014.9 |
| 20260905035515 | 66 | 121 | 0.0 | 0.0 | 0.00 | 0.00 | 0.00 | 93 | 1014.8 |
| 20260905035013 | 66 | 121 | 0.0 | 0.9 | 0.00 | 0.00 | 0.00 | 94 | 1014.7 |
| 20260905034524 | 66 | 121 | 0.0 | 1.7 | 0.00 | 0.00 | 0.00 | 94 | 1014.7 |
| 20260905034014 | 66 | 121 | 0.0 | 1.7 | 0.00 | 0.00 | 0.00 | 94 | 1014.5 |
| 20260905033513 | 66 | 148 | 0.0 | 0.9 | 0.00 | 0.00 | 0.00 | 94 | 1014.4 |
| 20260905033013 | 66 | 173 | 0.0 | 0.0 | 0.00 | 0.00 | 0.00 | 94 | 1014.5 |
| 20260905032516 | 66 | 173 | 0.0 | 0.0 | 0.00 | 0.00 | 0.00 | 94 | 1014.4 |
| 20260905032016 | 66 | 173 | 0.0 | 0.0 | 0.00 | 0.00 | 0.00 | 93 | 1014.5 |
| 20260905031513 | 66 | 173 | 0.0 | 0.9 | 0.00 | 0.00 | 0.00 | 93 | 1014.3 |
| 20260905031011 | 66 | 125 | 0.0 | 0.0 | 0.00 | 0.00 | 0.00 | 93 | 1014.3 |
| 20260905030513 | 66 | 125 | 0.0 | 0.0 | 0.00 | 0.00 | 0.00 | 93 | 1014.5 |
| 20260905030012 | 66 | 125 | 0.0 | 0.0 | 0.00 | 0.00 | 0.00 | 93 | 1014.3 |
| 20260905025512 | 66 | 125 | 0.0 | 0.0 | 0.00 | 0.00 | 0.00 | 93 | 1014.3 |
| 20260905025012 | 66 | 125 | 0.0 | 0.0 | 0.00 | 0.00 | 0.00 | 93 | 1014.2 |
| 20260905024515 | 66 | 125 | 0.0 | 0.0 | 0.00 | 0.00 | 0.00 | 92 | 1014.1 |
| 20260905024011 | 66 | 125 | 0.0 | 0.0 | 0.00 | 0.00 | 0.00 | 92 | 1014.0 |
| 20260905023509 | 67 | 125 | 0.0 | 0.0 | 0.00 | 0.00 | 0.00 | 92 | 1013.9 |
| 20260905023012 | 67 | 125 | 0.0 | 0.0 | 0.00 | 0.00 | 0.00 | 92 | 1014.0 |
| 20260905022508 | 67 | 125 | 0.0 | 0.0 | 0.00 | 0.00 | 0.00 | 92 | 1014.2 |
| 20260905022007 | 67 | 125 | 0.0 | 0.9 | 0.00 | 0.00 | 0.00 | 91 | 1014.0 |
| 20260905021506 | 67 | 125 | 0.0 | 0.9 | 0.00 | 0.00 | 0.00 | 91 | 1013.9 |
| 20260905021008 | 67 | 139 | 0.0 | 0.9 | 0.00 | 0.00 | 0.00 | 92 | 1014.0 |
| 20260905020508 | 67 | 139 | 0.0 | 0.0 | 0.00 | 0.00 | 0.00 | 92 | 1014.0 |
| 20260905020007 | 67 | 139 | 0.0 | 0.0 | 0.00 | 0.00 | 0.00 | 92 | 1014.0 |
| 20260905015506 | 67 | 139 | 0.0 | 0.9 | 0.00 | 0.00 | 0.00 | 92 | 1014.0 |
| 20260905015006 | 68 | 139 | 0.0 | 0.9 | 0.00 | 0.00 | 0.00 | 91 | 1014.2 |
| 20260905014505 | 68 | 139 | 0.0 | 0.9 | 0.00 | 0.00 | 0.00 | 91 | 1014.4 |
| 20260905014005 | 68 | 139 | 0.0 | 0.0 | 0.00 | 0.00 | 0.00 | 91 | 1014.4 |
| 20260905013505 | 68 | 139 | 0.0 | 0.0 | 0.00 | 0.00 | 0.00 | 90 | 1014.5 |
| 20260905013005 | 68 | 139 | 0.0 | 0.9 | 0.00 | 0.00 | 0.00 | 90 | 1014.5 |
| 20260905012505 | 68 | 139 | 0.0 | 0.0 | 0.00 | 0.00 | 0.00 | 90 | 1014.3 |
| 20260905012005 | 68 | 139 | 0.0 | 0.0 | 0.00 | 0.00 | 0.00 | 90 | 1014.2 |
| 20260905011505 | 69 | 139 | 0.0 | 0.0 | 0.00 | 0.00 | 0.00 | 89 | 1014.2 |
| 20260905011006 | 69 | 139 | 0.0 | 0.0 | 0.00 | 0.00 | 0.00 | 89 | 1014.3 |
| 20260905010504 | 69 | 139 | 0.0 | 0.9 | 0.00 | 0.00 | 0.00 | 88 | 1014.3 |
| 20260905010004 | 69 | 139 | 0.0 | 0.9 | 0.00 | 0.00 | 0.00 | 88 | 1014.4 |
| 20260905005503 | 69 | 139 | 0.0 | 0.0 | 0.00 | 0.00 | 0.00 | 88 | 1014.4 |
| 20260905005003 | 70 | 139 | 0.0 | 0.9 | 0.00 | 0.00 | 0.00 | 88 | 1014.5 |
| 20260905004503 | 70 | 139 | 0.0 | 0.9 | 0.00 | 0.00 | 0.00 | 87 | 1014.4 |
| 20260905004003 | 70 | 213 | 0.0 | 0.0 | 0.00 | 0.00 | 0.00 | 86 | 1014.5 |
| 20260905003503 | 70 | 213 | 0.0 | 0.0 | 0.00 | 0.00 | 0.00 | 86 | 1014.6 |
| 20260905003006 | 71 | 213 | 0.0 | 0.0 | 0.00 | 0.00 | 0.00 | 86 | 1014.5 |
| 20260905002502 | 71 | 213 | 0.0 | 0.0 | 0.00 | 0.00 | 0.00 | 85 | 1014.6 |
| 20260905002003 | 71 | 213 | 0.0 | 0.0 | 0.00 | 0.00 | 0.00 | 85 | 1014.5 |
| 20260905001502 | 72 | 213 | 0.0 | 0.0 | 0.00 | 0.00 | 0.00 | 84 | 1014.5 |
| 20260905001002 | 72 | 213 | 0.0 | 0.0 | 0.00 | 0.00 | 0.00 | 83 | 1014.4 |
| 20260905000602 | 72 | 213 | 0.0 | 0.0 | 0.00 | 0.00 | 0.00 | 83 | 1014.2 |
| 20260905000502 | 72 | 213 | 0.0 | 0.0 | 0.00 | 0.00 | 0.00 | 83 | 1014.2 |
| 20260905000001 | 72 | 213 | 0.0 | 0.9 | 0.00 | 0.00 | 0.00 | 82 | 1014.1 |
| 20260904235501 | 72 | 230 | 0.0 | 2.6 | 0.00 | 0.00 | 0.00 | 82 | 1014.3 |
| 20260904235001 | 73 | 233 | 0.0 | 2.6 | 0.00 | 0.00 | 0.00 | 82 | 1014.4 |
| 20260904234500 | 74 | 205 | 0.9 | 1.7 | 0.00 | 0.00 | 0.00 | 80 | 1014.3 |
| 20260904234100 | 74 | 224 | 0.0 | 1.7 | 0.00 | 0.00 | 0.00 | 79 | 1014.5 |
| 20260904233600 | 75 | 154 | 0.0 | 0.0 | 0.00 | 0.00 | 0.00 | 77 | 1014.4 |
| 20260904233100 | 75 | 154 | 0.0 | 0.0 | 0.00 | 0.00 | 0.00 | 75 | 1014.4 |
| 20260904232600 | 75 | 154 | 0.0 | 0.9 | 0.00 | 0.00 | 0.00 | 75 | 1014.3 |
| 20260904232101 | 76 | 153 | 0.0 | 0.9 | 0.00 | 0.00 | 0.00 | 73 | 1014.3 |
| 20260904231600 | 77 | 153 | 0.0 | 0.0 | 0.00 | 0.00 | 0.00 | 72 | 1014.2 |
| 20260904231059 | 77 | 153 | 0.0 | 0.0 | 0.00 | 0.00 | 0.00 | 72 | 1014.2 |
| 20260904230559 | 77 | 153 | 0.0 | 0.0 | 0.00 | 0.00 | 0.00 | 70 | 1014.2 |
| 20260904230128 | 77 | 153 | 0.0 | 0.0 | 0.00 | 0.00 | 0.00 | 69 | 1014.2 |
| 20260904225600 | 78 | 153 | 0.0 | 0.0 | 0.00 | 0.00 | 0.00 | 70 | 1014.2 |
| 20260904225059 | 78 | 153 | 0.0 | 0.9 | 0.00 | 0.00 | 0.00 | 68 | 1014.1 |
| 20260904224603 | 78 | 154 | 0.0 | 0.9 | 0.00 | 0.00 | 0.00 | 68 | 1014.0 |
| 20260904224058 | 78 | 154 | 0.0 | 0.0 | 0.00 | 0.00 | 0.00 | 66 | 1014.0 |
| 20260904223558 | 78 | 154 | 0.0 | 0.9 | 0.00 | 0.00 | 0.00 | 68 | 1013.9 |
| 20260904223105 | 78 | 153 | 0.0 | 0.9 | 0.00 | 0.00 | 0.00 | 68 | 1014.0 |
| 20260904222558 | 78 | 334 | 0.0 | 1.7 | 0.00 | 0.00 | 0.00 | 67 | 1014.2 |
| 20260904222058 | 79 | 334 | 0.0 | 1.7 | 0.00 | 0.00 | 0.00 | 64 | 1014.3 |
| 20260904221558 | 80 | 52 | 0.0 | 1.7 | 0.00 | 0.00 | 0.00 | 66 | 1014.2 |
| 20260904221057 | 80 | 158 | 0.0 | 1.7 | 0.00 | 0.00 | 0.00 | 65 | 1014.2 |
| 20260904220557 | 80 | 328 | 0.0 | 1.7 | 0.00 | 0.00 | 0.00 | 64 | 1014.2 |
| 20260904220057 | 80 | 240 | 0.0 | 4.3 | 0.00 | 0.00 | 0.00 | 65 | 1014.2 |
| 20260904215557 | 80 | 242 | 0.0 | 5.2 | 0.00 | 0.00 | 0.00 | 64 | 1014.3 |
| 20260904215056 | 81 | 301 | 0.9 | 5.2 | 0.00 | 0.00 | 0.00 | 61 | 1014.1 |
| 20260904214559 | 82 | 44 | 0.9 | 3.5 | 0.00 | 0.00 | 0.00 | 62 | 1014.2 |
| 20260904214056 | 83 | 146 | 0.0 | 4.3 | 0.00 | 0.00 | 0.00 | 65 | 1014.1 |
| 20260904213556 | 84 | 340 | 1.7 | 4.3 | 0.00 | 0.00 | 0.00 | 65 | 1014.1 |
| 20260904213056 | 84 | 108 | 0.0 | 1.7 | 0.00 | 0.00 | 0.00 | 65 | 1013.7 |
| 20260904212556 | 83 | 128 | 0.0 | 0.9 | 0.00 | 0.00 | 0.00 | 67 | 1013.6 |
| 20260904212055 | 82 | 109 | 0.0 | 0.9 | 0.00 | 0.00 | 0.00 | 68 | 1013.5 |
| 20260904211555 | 82 | 194 | 0.0 | 3.5 | 0.00 | 0.00 | 0.00 | 68 | 1013.6 |
| 20260904211054 | 81 | 216 | 0.0 | 3.5 | 0.00 | 0.00 | 0.00 | 69 | 1013.7 |
| 20260904210554 | 81 | 155 | 0.9 | 3.5 | 0.00 | 0.00 | 0.00 | 68 | 1013.8 |
| 20260904210054 | 82 | 180 | 0.9 | 2.6 | 0.00 | 0.00 | 0.00 | 68 | 1013.9 |
| 20260904205554 | 81 | 166 | 0.0 | 1.7 | 0.00 | 0.00 | 0.00 | 68 | 1013.8 |
| 20260904205053 | 81 | 157 | 0.0 | 1.7 | 0.00 | 0.00 | 0.00 | 69 | 1013.7 |
| 20260904204553 | 80 | 210 | 0.0 | 2.6 | 0.00 | 0.00 | 0.00 | 71 | 1013.9 |
| 20260904204053 | 80 | 92 | 0.0 | 2.6 | 0.00 | 0.00 | 0.00 | 70 | 1013.7 |